When you browse on this site, cookies collect data to enhance your experience and personalize the content and advertising you see.
Visit our Privacy Policy to learn more. By continuing to use the site, you agree to this use of cookies and data.

Stündliche Wetter Lezhe

Heute, 4 Juli, Samstag

Zeit Temperatur Niederschläge Wind Luftdruck Luftfeuchtigkeit
00:00 +23°C° 0 mm 2 m/S 735 mmHg 73%
01:00 +23°C° 0 mm 2 m/S 736 mmHg 74%
02:00 +21°C° 0 mm 2 m/S 735 mmHg 75%
03:00 +21°C° 0 mm 3 m/S 735 mmHg 76%
04:00 +21°C° 0 mm 3 m/S 735 mmHg 77%
05:00 +22°C° 0 mm 3 m/S 735 mmHg 74%
06:00 +25°C° 0 mm 3 m/S 736 mmHg 70%
07:00 +26°C° 0 mm 3 m/S 736 mmHg 67%
08:00 +28°C° 0.1 mm 3 m/S 736 mmHg 61%
09:00 +29°C° 0.1 mm 2 m/S 736 mmHg 56%
10:00 +31°C° 0.1 mm 2 m/S 736 mmHg 50%
11:00 +32°C° 0.1 mm 2 m/S 736 mmHg 47%
12:00 +34°C° 0.1 mm 3 m/S 736 mmHg 44%
13:00 +35°C° 0.1 mm 3 m/S 736 mmHg 41%
14:00 +34°C° 0.1 mm 3 m/S 735 mmHg 43%
15:00 +33°C° 0.1 mm 3 m/S 735 mmHg 45%
16:00 +33°C° 0.1 mm 3 m/S 735 mmHg 47%
17:00 +30°C° 0 mm 3 m/S 735 mmHg 54%
18:00 +28°C° 0 mm 3 m/S 735 mmHg 61%
19:00 +26°C° 0 mm 2 m/S 735 mmHg 69%
20:00 +25°C° 0 mm 2 m/S 735 mmHg 71%
21:00 +24°C° 0 mm 2 m/S 735 mmHg 73%
22:00 +23°C° 0 mm 2 m/S 735 mmHg 74%
23:00 +23°C° 0 mm 2 m/S 735 mmHg 75%

Morgen, 5 Juli, Sonntag

Zeit Temperatur Niederschläge Wind Luftdruck Luftfeuchtigkeit
00:00 +21°C° 0 mm 3 m/S 735 mmHg 76%
01:00 +21°C° 0 mm 3 m/S 735 mmHg 76%
02:00 +21°C° 0 mm 3 m/S 735 mmHg 77%
03:00 +20°C° 0 mm 3 m/S 735 mmHg 78%
04:00 +20°C° 0 mm 3 m/S 735 mmHg 79%
05:00 +21°C° 0 mm 4 m/S 735 mmHg 75%
06:00 +23°C° 0 mm 4 m/S 735 mmHg 71%
07:00 +25°C° 0 mm 4 m/S 735 mmHg 66%
08:00 +27°C° 0 mm 4 m/S 735 mmHg 61%
09:00 +28°C° 0 mm 4 m/S 735 mmHg 56%
10:00 +30°C° 0 mm 5 m/S 735 mmHg 51%
11:00 +30°C° 0 mm 5 m/S 735 mmHg 49%
12:00 +32°C° 0 mm 5 m/S 735 mmHg 47%
13:00 +33°C° 0 mm 5 m/S 735 mmHg 45%
14:00 +33°C° 0 mm 5 m/S 734 mmHg 46%
15:00 +32°C° 0 mm 5 m/S 734 mmHg 47%
16:00 +32°C° 0 mm 5 m/S 734 mmHg 48%
17:00 +29°C° 0 mm 5 m/S 734 mmHg 54%
18:00 +28°C° 0 mm 4 m/S 734 mmHg 59%
19:00 +26°C° 0 mm 4 m/S 734 mmHg 65%
20:00 +25°C° 0 mm 4 m/S 734 mmHg 68%
21:00 +24°C° 0 mm 3 m/S 734 mmHg 70%
22:00 +22°C° 0 mm 3 m/S 734 mmHg 72%
23:00 +22°C° 0 mm 3 m/S 734 mmHg 74%

übermorgen, 6 Juli, Montag

Zeit Temperatur Niederschläge Wind Luftdruck Luftfeuchtigkeit
00:00 +21°C° 0 mm 4 m/S 734 mmHg 75%
01:00 +21°C° 0 mm 4 m/S 733 mmHg 76%
02:00 +21°C° 0 mm 4 m/S 733 mmHg 76%
03:00 +21°C° 0 mm 4 m/S 733 mmHg 76%
04:00 +21°C° 0 mm 4 m/S 732 mmHg 76%
05:00 +22°C° 0 mm 4 m/S 732 mmHg 73%
06:00 +23°C° 0 mm 4 m/S 733 mmHg 69%
07:00 +25°C° 0 mm 4 m/S 733 mmHg 66%
08:00 +27°C° 0 mm 4 m/S 733 mmHg 61%
09:00 +28°C° 0 mm 4 m/S 732 mmHg 57%
10:00 +30°C° 0 mm 3 m/S 732 mmHg 52%
11:00 +31°C° 0.1 mm 3 m/S 732 mmHg 50%
12:00 +31°C° 0.1 mm 3 m/S 732 mmHg 47%
13:00 +33°C° 0.1 mm 3 m/S 732 mmHg 45%
14:00 +33°C° 0.2 mm 3 m/S 731 mmHg 48%
15:00 +32°C° 0.2 mm 4 m/S 731 mmHg 50%
16:00 +30°C° 0.2 mm 4 m/S 731 mmHg 53%
17:00 +29°C° 0.2 mm 3 m/S 731 mmHg 60%
18:00 +27°C° 0.2 mm 2 m/S 731 mmHg 68%
19:00 +26°C° 0.2 mm 2 m/S 731 mmHg 76%
20:00 +25°C° 0 mm 2 m/S 731 mmHg 77%
21:00 +24°C° 0 mm 2 m/S 731 mmHg 78%
22:00 +23°C° 0 mm 2 m/S 731 mmHg 80%
23:00 +23°C° 0 mm 2 m/S 731 mmHg 80%

7 Juli, Dienstag

Zeit Temperatur Niederschläge Wind Luftdruck Luftfeuchtigkeit
00:00 +23°C° 0 mm 2 m/S 730 mmHg 80%
01:00 +21°C° 0 mm 2 m/S 730 mmHg 81%
02:00 +21°C° 0 mm 2 m/S 730 mmHg 81%
03:00 +21°C° 0 mm 2 m/S 730 mmHg 81%
04:00 +20°C° 0 mm 2 m/S 730 mmHg 82%
05:00 +23°C° 0 mm 2 m/S 730 mmHg 77%
06:00 +25°C° 0 mm 2 m/S 730 mmHg 73%
07:00 +26°C° 0 mm 2 m/S 731 mmHg 68%
08:00 +28°C° 0 mm 3 m/S 731 mmHg 62%
09:00 +29°C° 0 mm 3 m/S 731 mmHg 57%
10:00 +32°C° 0 mm 4 m/S 732 mmHg 51%
11:00 +32°C° 0.1 mm 4 m/S 732 mmHg 50%
12:00 +32°C° 0.1 mm 5 m/S 732 mmHg 49%
13:00 +33°C° 0.1 mm 5 m/S 732 mmHg 47%
14:00 +32°C° 0.1 mm 5 m/S 732 mmHg 50%
15:00 +30°C° 0.1 mm 5 m/S 732 mmHg 52%
16:00 +29°C° 0.1 mm 5 m/S 732 mmHg 54%
17:00 +27°C° 0 mm 5 m/S 733 mmHg 58%
18:00 +25°C° 0 mm 5 m/S 733 mmHg 62%
19:00 +22°C° 0 mm 5 m/S 734 mmHg 67%
20:00 +21°C° 0 mm 5 m/S 734 mmHg 67%
21:00 +20°C° 0 mm 5 m/S 735 mmHg 68%
22:00 +19°C° 0 mm 5 m/S 735 mmHg 69%
23:00 +17°C° 0 mm 5 m/S 735 mmHg 69%

8 Juli, Mittwoch

Zeit Temperatur Niederschläge Wind Luftdruck Luftfeuchtigkeit
00:00 +17°C° 0 mm 5 m/S 735 mmHg 69%
01:00 +16°C° 0 mm 5 m/S 735 mmHg 69%
02:00 +16°C° 0 mm 5 m/S 736 mmHg 70%
03:00 +16°C° 0 mm 5 m/S 736 mmHg 70%
04:00 +15°C° 0 mm 5 m/S 736 mmHg 71%
05:00 +16°C° 0 mm 5 m/S 736 mmHg 66%
06:00 +17°C° 0 mm 5 m/S 736 mmHg 61%
07:00 +20°C° 0 mm 6 m/S 737 mmHg 56%
08:00 +21°C° 0 mm 6 m/S 737 mmHg 52%
09:00 +23°C° 0 mm 6 m/S 737 mmHg 47%
10:00 +26°C° 0 mm 6 m/S 737 mmHg 43%
11:00 +26°C° 0 mm 5 m/S 737 mmHg 42%
12:00 +27°C° 0 mm 5 m/S 737 mmHg 41%
13:00 +28°C° 0 mm 5 m/S 737 mmHg 40%
14:00 +28°C° 0 mm 5 m/S 737 mmHg 40%
15:00 +28°C° 0 mm 5 m/S 737 mmHg 41%
16:00 +28°C° 0 mm 4 m/S 737 mmHg 42%
17:00 +26°C° 0 mm 4 m/S 737 mmHg 48%
18:00 +25°C° 0 mm 4 m/S 737 mmHg 54%
19:00 +22°C° 0 mm 3 m/S 737 mmHg 60%
20:00 +21°C° 0 mm 4 m/S 738 mmHg 61%
21:00 +20°C° 0 mm 4 m/S 738 mmHg 63%
22:00 +19°C° 0 mm 4 m/S 738 mmHg 65%
23:00 +18°C° 0 mm 4 m/S 738 mmHg 67%

9 Juli, Donnerstag

Zeit Temperatur Niederschläge Wind Luftdruck Luftfeuchtigkeit
00:00 +18°C° 0 mm 4 m/S 738 mmHg 68%
01:00 +17°C° 0 mm 4 m/S 738 mmHg 70%
02:00 +17°C° 0 mm 4 m/S 738 mmHg 70%
03:00 +17°C° 0 mm 3 m/S 738 mmHg 71%
04:00 +16°C° 0 mm 3 m/S 738 mmHg 71%
05:00 +18°C° 0 mm 3 m/S 738 mmHg 66%
06:00 +20°C° 0 mm 3 m/S 738 mmHg 61%
07:00 +22°C° 0 mm 3 m/S 738 mmHg 56%
08:00 +25°C° 0 mm 2 m/S 738 mmHg 50%
09:00 +27°C° 0 mm 2 m/S 738 mmHg 45%
10:00 +29°C° 0 mm 2 m/S 739 mmHg 39%
11:00 +30°C° 0 mm 2 m/S 738 mmHg 38%
12:00 +31°C° 0 mm 2 m/S 738 mmHg 37%
13:00 +32°C° 0 mm 2 m/S 738 mmHg 36%
14:00 +32°C° 0 mm 2 m/S 738 mmHg 37%
15:00 +31°C° 0 mm 2 m/S 738 mmHg 39%
16:00 +31°C° 0 mm 2 m/S 737 mmHg 40%
17:00 +29°C° 0 mm 2 m/S 737 mmHg 48%
18:00 +27°C° 0 mm 1 m/S 737 mmHg 56%
19:00 +24°C° 0 mm 1 m/S 737 mmHg 63%
20:00 +24°C° 0 mm 1 m/S 737 mmHg 65%
21:00 +23°C° 0 mm 1 m/S 737 mmHg 66%
22:00 +22°C° 0 mm 1 m/S 737 mmHg 68%
23:00 +22°C° 0 mm 1 m/S 737 mmHg 68%
Mehr zeigen